{"data":{"norad_id":68282,"intl_designator":"2026-055W","name":"STARLINK-37160","alt_names":[],"object_type":"PAYLOAD","status":"ACTIVE","operator":null,"country":"US","launch_date":"2026-03-19","launch_site_code":"AFETR","launch_vehicle":null,"mission":null,"orbit_class":"UNKNOWN","rcs_meters":null,"size_class":null,"mass_kg":null,"dimensions":null,"purposes":["comms"],"wikipedia_slug":null,"has_3d_model":false,"image_url":null,"decayed_at":null,"tle_current":{"epoch":"2026-09-20T01:07:34.896288Z","epoch_age_seconds":90984,"freshness":"FRESH","line1":"1 68282U 26055W   26263.04693167  .00018031  00000+0  54353-3 0  9994","line2":"2 68282  53.1579 131.8108 0001800  60.4722 299.6459 15.34399244 29751","mean_motion":15.34399244,"eccentricity":0.00018,"inclination_deg":53.1579,"raan_deg":131.8108,"arg_perigee_deg":60.4722,"mean_anomaly_deg":299.6459,"bstar":0.00054353,"rev_number":2975,"period_min":93.847804320216,"perigee_km":461.47413555165,"apogee_km":463.93683884704,"semimajor_km":6840.8424871993,"source":"CELESTRAK","updated_at":"2026-09-20T09:00:43.850407Z"}}}